Location: Ozark
(37.5425°N, 88.7628°W)
Time: 10:04:45
(UTC+00:00)

ADEOS Rocket - Pass Details

Date: 26 January 2020
Orbit: 859 x 1306 km, 98.7° (Epoch: 25 February)

Event Time Altitude Azimuth Distance (km) Brightness Sun altitude
Rises 12:03:13 0° 164° (SSE) 3,424 6.3 -12.1°
Reaches altitude 10° 12:05:33 10° 163° (SSE) 2,486 5.6 -11.7°
Maximum altitude 12:11:01 86° 75° (ENE) 879 2.8 -10.6°
Drops below altitude 10° 12:16:44 10° 348° (NNW) 2,601 5.0 -9.5°
Sets 12:19:13 0° 348° (NNW) 3,593 5.7 -9.1°
